When you browse on this site, cookies collect data to enhance your experience and personalize the content and advertising you see.
Visit our Privacy Policy to learn more. By continuing to use the site, you agree to this use of cookies and data.
  • In Switzerland
  • List of Countries
  • For 7 days
  • Water Temperature
  • Satellite Maps
  • Weather Map
  • Weather Widgets
  • user-avatar
    Login

    Hourly Weather Yangjiang

    Today, 18 July, Thursday

    Time Temperature Precipitation Wind Pressure Humidity
    00:00 +29°C° 0 mm 2 mps 749 mmHg 82%
    01:00 +29°C° 0 mm 2 mps 749 mmHg 83%
    02:00 +29°C° 0 mm 2 mps 749 mmHg 83%
    03:00 +29°C° 0 mm 2 mps 748 mmHg 83%
    04:00 +29°C° 0 mm 2 mps 748 mmHg 83%
    05:00 +29°C° 0 mm 2 mps 748 mmHg 81%
    06:00 +30°C° 0 mm 2 mps 748 mmHg 80%
    07:00 +31°C° 0 mm 2 mps 748 mmHg 78%
    08:00 +32°C° 0 mm 2 mps 749 mmHg 73%
    09:00 +35°C° 0 mm 2 mps 749 mmHg 67%
    10:00 +36°C° 0 mm 2 mps 749 mmHg 62%
    11:00 +37°C° 0 mm 3 mps 748 mmHg 60%
    12:00 +38°C° 0 mm 3 mps 748 mmHg 58%
    13:00 +38°C° 0 mm 3 mps 747 mmHg 56%
    14:00 +38°C° 0.1 mm 4 mps 747 mmHg 58%
    15:00 +37°C° 0.1 mm 4 mps 747 mmHg 61%
    16:00 +37°C° 0.1 mm 4 mps 747 mmHg 63%
    17:00 +36°C° 0.1 mm 4 mps 747 mmHg 68%
    18:00 +34°C° 0.1 mm 3 mps 747 mmHg 73%
    19:00 +33°C° 0.1 mm 3 mps 747 mmHg 78%
    20:00 +32°C° 0 mm 2 mps 748 mmHg 79%
    21:00 +31°C° 0 mm 2 mps 748 mmHg 80%
    22:00 +31°C° 0 mm 2 mps 749 mmHg 81%
    23:00 +31°C° 0 mm 2 mps 749 mmHg 83%

    Tomorrow, 19 July, Friday

    Time Temperature Precipitation Wind Pressure Humidity
    00:00 +30°C° 0 mm 3 mps 748 mmHg 84%
    01:00 +30°C° 0 mm 3 mps 748 mmHg 85%
    02:00 +30°C° 0 mm 3 mps 748 mmHg 86%
    03:00 +29°C° 0 mm 3 mps 748 mmHg 87%
    04:00 +29°C° 0 mm 3 mps 748 mmHg 87%
    05:00 +30°C° 0 mm 3 mps 748 mmHg 85%
    06:00 +31°C° 0 mm 3 mps 749 mmHg 83%
    07:00 +31°C° 0 mm 3 mps 750 mmHg 81%
    08:00 +33°C° 0 mm 3 mps 750 mmHg 76%
    09:00 +34°C° 0 mm 4 mps 750 mmHg 71%
    10:00 +35°C° 0 mm 4 mps 750 mmHg 67%
    11:00 +36°C° 0 mm 4 mps 750 mmHg 66%
    12:00 +36°C° 0 mm 4 mps 750 mmHg 64%
    13:00 +37°C° 0 mm 4 mps 749 mmHg 63%
    14:00 +36°C° 0 mm 4 mps 749 mmHg 67%
    15:00 +35°C° 0 mm 4 mps 748 mmHg 71%
    16:00 +35°C° 0 mm 5 mps 748 mmHg 75%
    17:00 +34°C° 0.1 mm 4 mps 749 mmHg 79%
    18:00 +33°C° 0.1 mm 4 mps 749 mmHg 84%
    19:00 +31°C° 0.1 mm 3 mps 749 mmHg 88%
    20:00 +30°C° 0 mm 3 mps 750 mmHg 88%
    21:00 +30°C° 0 mm 3 mps 750 mmHg 89%
    22:00 +30°C° 0 mm 3 mps 751 mmHg 89%
    23:00 +30°C° 0.1 mm 2 mps 750 mmHg 89%

    Day after tomorrow, 20 July, Saturday

    Time Temperature Precipitation Wind Pressure Humidity
    00:00 +30°C° 0.1 mm 2 mps 750 mmHg 89%
    01:00 +30°C° 0.1 mm 2 mps 750 mmHg 89%
    02:00 +29°C° 0 mm 2 mps 750 mmHg 89%
    03:00 +29°C° 0 mm 2 mps 750 mmHg 89%
    04:00 +29°C° 0 mm 1 mps 750 mmHg 89%
    05:00 +30°C° 0 mm 2 mps 750 mmHg 87%
    06:00 +31°C° 0 mm 2 mps 751 mmHg 85%
    07:00 +31°C° 0 mm 2 mps 751 mmHg 83%
    08:00 +33°C° 0 mm 3 mps 751 mmHg 79%
    09:00 +34°C° 0 mm 3 mps 752 mmHg 76%
    10:00 +35°C° 0 mm 4 mps 752 mmHg 72%
    11:00 +35°C° 0 mm 4 mps 751 mmHg 73%
    12:00 +35°C° 0 mm 4 mps 751 mmHg 74%
    13:00 +35°C° 0 mm 5 mps 751 mmHg 74%
    14:00 +35°C° 0 mm 5 mps 750 mmHg 77%
    15:00 +34°C° 0 mm 5 mps 750 mmHg 79%
    16:00 +34°C° 0 mm 5 mps 749 mmHg 81%
    17:00 +33°C° 0 mm 4 mps 750 mmHg 85%
    18:00 +31°C° 0 mm 3 mps 750 mmHg 88%
    19:00 +30°C° 0 mm 2 mps 750 mmHg 92%
    20:00 +30°C° 0 mm 2 mps 751 mmHg 92%
    21:00 +30°C° 0 mm 2 mps 751 mmHg 93%
    22:00 +30°C° 0 mm 2 mps 751 mmHg 94%
    23:00 +30°C° 0 mm 2 mps 751 mmHg 94%

    21 July, Sunday

    Time Temperature Precipitation Wind Pressure Humidity
    00:00 +29°C° 0 mm 2 mps 751 mmHg 94%
    01:00 +29°C° 0 mm 2 mps 751 mmHg 94%
    02:00 +29°C° 0.1 mm 2 mps 751 mmHg 94%
    03:00 +29°C° 0.1 mm 2 mps 751 mmHg 94%
    04:00 +29°C° 0.1 mm 3 mps 750 mmHg 94%
    05:00 +30°C° 0.1 mm 3 mps 751 mmHg 91%
    06:00 +31°C° 0.1 mm 3 mps 751 mmHg 88%
    07:00 +31°C° 0.1 mm 3 mps 751 mmHg 85%
    08:00 +33°C° 0.3 mm 4 mps 751 mmHg 81%
    09:00 +34°C° 0.3 mm 4 mps 752 mmHg 78%
    10:00 +34°C° 0.3 mm 5 mps 752 mmHg 75%
    11:00 +35°C° 0.1 mm 5 mps 751 mmHg 74%
    12:00 +35°C° 0.1 mm 5 mps 751 mmHg 73%
    13:00 +35°C° 0.1 mm 5 mps 751 mmHg 73%
    14:00 +35°C° 0.1 mm 5 mps 750 mmHg 75%
    15:00 +34°C° 0.1 mm 5 mps 750 mmHg 77%
    16:00 +33°C° 0.1 mm 4 mps 749 mmHg 79%
    17:00 +33°C° 0 mm 4 mps 750 mmHg 82%
    18:00 +31°C° 0 mm 3 mps 750 mmHg 85%
    19:00 +30°C° 0 mm 2 mps 750 mmHg 89%
    20:00 +30°C° 0 mm 2 mps 751 mmHg 90%
    21:00 +30°C° 0 mm 2 mps 751 mmHg 91%
    22:00 +30°C° 0 mm 2 mps 752 mmHg 92%
    23:00 +30°C° 0.3 mm 2 mps 751 mmHg 92%

    22 July, Monday

    Time Temperature Precipitation Wind Pressure Humidity
    00:00 +29°C° 0.3 mm 2 mps 751 mmHg 92%
    01:00 +29°C° 0.3 mm 2 mps 751 mmHg 92%
    02:00 +29°C° 0.6 mm 2 mps 750 mmHg 92%
    03:00 +29°C° 0.6 mm 2 mps 750 mmHg 92%
    04:00 +29°C° 0.6 mm 2 mps 750 mmHg 92%
    05:00 +30°C° 0.6 mm 3 mps 750 mmHg 88%
    06:00 +31°C° 0.6 mm 3 mps 751 mmHg 85%
    07:00 +31°C° 0.6 mm 3 mps 751 mmHg 82%
    08:00 +33°C° 0.2 mm 3 mps 751 mmHg 78%
    09:00 +34°C° 0.2 mm 4 mps 751 mmHg 74%
    10:00 +35°C° 0.2 mm 5 mps 751 mmHg 70%
    11:00 +35°C° 0 mm 5 mps 751 mmHg 70%
    12:00 +35°C° 0 mm 5 mps 750 mmHg 70%
    13:00 +35°C° 0 mm 5 mps 750 mmHg 70%
    14:00 +35°C° 0.1 mm 5 mps 750 mmHg 71%
    15:00 +35°C° 0.1 mm 5 mps 749 mmHg 72%
    16:00 +34°C° 0.1 mm 4 mps 749 mmHg 74%
    17:00 +33°C° 0.1 mm 4 mps 749 mmHg 78%
    18:00 +31°C° 0.1 mm 3 mps 750 mmHg 82%
    19:00 +30°C° 0.1 mm 2 mps 750 mmHg 86%
    20:00 +30°C° 0 mm 2 mps 750 mmHg 87%
    21:00 +30°C° 0 mm 3 mps 751 mmHg 89%
    22:00 +30°C° 0 mm 3 mps 751 mmHg 90%
    23:00 +29°C° 0.1 mm 3 mps 751 mmHg 90%

    23 July, Tuesday

    Time Temperature Precipitation Wind Pressure Humidity
    00:00 +29°C° 0.1 mm 3 mps 751 mmHg 90%
    01:00 +29°C° 0.1 mm 3 mps 750 mmHg 89%
    02:00 +29°C° 0.2 mm 3 mps 750 mmHg 89%
    03:00 +29°C° 0.2 mm 3 mps 750 mmHg 89%
    04:00 +29°C° 0.2 mm 3 mps 750 mmHg 89%
    05:00 +30°C° 0.2 mm 3 mps 750 mmHg 86%
    06:00 +30°C° 0.2 mm 3 mps 750 mmHg 83%
    07:00 +31°C° 0.2 mm 3 mps 751 mmHg 81%
    08:00 +33°C° 0.5 mm 3 mps 751 mmHg 77%
    09:00 +33°C° 0.5 mm 4 mps 751 mmHg 74%
    10:00 +34°C° 0.5 mm 4 mps 751 mmHg 70%
    11:00 +34°C° 0.3 mm 5 mps 751 mmHg 70%
    12:00 +34°C° 0.3 mm 6 mps 751 mmHg 70%
    13:00 +35°C° 0.3 mm 6 mps 750 mmHg 70%
    14:00 +34°C° 0.1 mm 6 mps 750 mmHg 73%
    15:00 +33°C° 0.1 mm 6 mps 750 mmHg 75%
    16:00 +33°C° 0.1 mm 6 mps 749 mmHg 78%
    17:00 +32°C° 0 mm 5 mps 750 mmHg 81%
    18:00 +30°C° 0 mm 4 mps 750 mmHg 83%
    19:00 +30°C° 0 mm 4 mps 750 mmHg 86%
    20:00 +30°C° 0.1 mm 3 mps 751 mmHg 87%
    21:00 +30°C° 0.1 mm 3 mps 751 mmHg 88%
    22:00 +30°C° 0.1 mm 3 mps 752 mmHg 89%
    23:00 +29°C° 0.1 mm 3 mps 752 mmHg 89%
    Show more